Weather past 2 weeks in Saipan, Northern Mariana Islands

Now
82 °F

Scattered clouds.


Feels Like: 91 °F
Forecast: 78 / 84 °F
Wind: 15 mph from Northeast

Location: Saipan International Airport

Current Time: Jul 4, 2015 at 7:25:37 AM

Latest Report: Jul 4, 2015 at 6:54 AM


Visibility: 10 mi

Pressure: 29.67 "Hg

Humidity: 88%

Dew point: 78 °F

Location of SaipanLocation

Historic Weather in Saipan — Graph

°F

Saipan temperature yesterday

Maximum temperature yesterday: 89 °F (at 1:54 PM)
Minimum temperature yesterday: 81 °F (at 10:57 AM)
Average temperature yesterday: 84 °F

Past Weeks' High & Low Weather Summary

 TemperatureHumidityPressure
High89 °F (Jun 23, 12:54 PM)94% (Jun 24, 3:54 AM)30.00 "Hg (Jun 24, 3:54 AM)
Low77 °F (Jun 24, 3:54 AM)63% (Jun 19, 1:54 PM)29.62 "Hg (Jul 3, 3:33 PM)
Average83 °F79%29.90 "Hg
* Reported Jun 19 5:54 AM — Jul 4 5:54 AM, Saipan, Weather by CustomWeather, © 2015

Note: Actual official high and low records may vary slightly from our data, if they occured in-between our weather recording intervals... More about our weather records

Advertising

Saipan weather history for previous 24 hours

 ConditionsComfort  
Time TempWeatherWind HumidityBarometerVisibility
5:54 AM
Sat, Jul 4
79 °FLight rain. Scattered clouds.15 mph90%29.65 "Hg8 mi
4:54 AM81 °FLight rain. Fog.21 mph91%29.64 "Hg6 mi
3:54 AM82 °FPassing clouds.22 mph88%29.64 "Hg10 mi
2:54 AM82 °FPassing clouds.25 mph85%29.64 "Hg10 mi
1:54 AM82 °FPassing clouds.23 mph88%29.65 "Hg10 mi
12:54 AM80 °FLight rain. Mostly cloudy.24 mph90%29.67 "Hg9 mi
11:54 PM
Fri, Jul 3
83 °FLight rain. Mostly cloudy.29 mph79%29.68 "Hg10 mi
10:54 PM83 °FPartly cloudy.23 mph79%29.69 "Hg10 mi
9:54 PM84 °FPartly cloudy.24 mph80%29.69 "Hg10 mi
8:54 PM82 °FPartly cloudy.21 mph85%29.68 "Hg10 mi
7:54 PM81 °FLight rain. Partly cloudy.26 mph88%29.68 "Hg10 mi
6:54 PM83 °FLight rain. Partly cloudy.23 mph85%29.67 "Hg6 mi
5:54 PM83 °FLight rain. Scattered clouds.22 mph82%29.65 "Hg8 mi
4:54 PM87 °FScattered clouds.24 mph69%29.66 "Hg10 mi
3:54 PM86 °FScattered clouds.21 mph77%29.68 "Hg10 mi
3:33 PM84 °FScattered clouds.24 mph84%29.62 "Hg10 mi
2:54 PM82 °FBroken clouds.15 mph85%29.70 "Hg10 mi
1:54 PM89 °FBroken clouds.24 mph65%29.70 "Hg10 mi
12:54 PM88 °FScattered clouds.24 mph67%29.72 "Hg10 mi
12:02 PM88 °FLight rain. Scattered clouds.24 mph70%29.67 "Hg10 mi
11:54 AM87 °FLight rain. Mostly cloudy.29 mph75%29.73 "Hg7 mi
10:57 AM81 °FLight rain. Mostly cloudy.20 mph94%29.71 "Hg7 mi
9:54 AM83 °FCloudy.24 mph82%29.77 "Hg10 mi
8:54 AM87 °FBroken clouds.22 mph69%29.77 "Hg10 mi
8:14 AM86 °FPartly sunny.22 mph75%29.71 "Hg10 mi
7:54 AM85 °FPartly sunny.22 mph77%29.76 "Hg10 mi
Weather by CustomWeather, © 2015

See weather overviewHow to use our weather pages